IBET216 LXGB-GCXO

Flight info

Callsign IBET216
Flight time 2h 4m
Altitude 33000
Route BARPA UM985 ROMSO DCT CBA/N0455F350 DCT MGR DCT LZR DCT LARYS
Aircraft B738/M-SDE2E3FGHIRWXY/LB1

Departure

Time 2026-04-20 05:49
Airport Gibraltar Airport (LXGB)

Arrival

Time 2026-04-20 07:54
Airport Tenerife Norte-Ciudad de La Laguna Airport (GCXO)
Time Latitude Longitude Altitude Speed Heading
2026-04-20 05:29 36.15298 -5.34721 15 ft 0 kts 358°
2026-04-20 05:33 36.15292 -5.34721 15 ft 2 kts 355°
2026-04-20 05:33 36.15277 -5.34716 15 ft 2 kts 333°
2026-04-20 05:33 36.15264 -5.34706 15 ft 2 kts 317°
2026-04-20 05:33 36.15255 -5.34692 15 ft 2 kts 301°
2026-04-20 05:34 36.15249 -5.34675 15 ft 2 kts 283°
2026-04-20 05:34 36.15247 -5.34660 15 ft 0 kts 270°
2026-04-20 05:34 36.15248 -5.34652 15 ft 0 kts 268°
2026-04-20 05:45 36.15247 -5.34658 15 ft 3 kts 262°
2026-04-20 05:46 36.15231 -5.34686 15 ft 3 kts 207°
2026-04-20 05:46 36.15201 -5.34692 15 ft 0 kts 182°
2026-04-20 05:47 36.15155 -5.34706 15 ft 20 kts 216°
2026-04-20 05:47 36.15120 -5.34880 15 ft 20 kts 266°
2026-04-20 05:47 36.15111 -5.35061 15 ft 23 kts 266°
2026-04-20 05:48 36.15102 -5.35302 10 ft 31 kts 268°
2026-04-20 05:48 36.15095 -5.35567 9 ft 29 kts 270°
2026-04-20 05:48 36.15097 -5.35748 9 ft 17 kts 283°
2026-04-20 05:48 36.15102 -5.35848 9 ft 6 kts 173°
2026-04-20 05:49 36.15091 -5.35806 9 ft 6 kts 94°
2026-04-20 05:49 36.15100 -5.35482 9 ft 80 kts 88°
2026-04-20 05:49 36.15136 -5.34441 16 ft 158 kts 88°
2026-04-20 05:49 36.15173 -5.33042 872 ft 158 kts 90°
2026-04-20 05:50 36.15060 -5.31810 1687 ft 151 kts 110°
2026-04-20 05:50 36.14349 -5.30805 2093 ft 165 kts 154°
2026-04-20 05:50 36.13177 -5.30631 2538 ft 181 kts 180°
2026-04-20 05:50 36.11936 -5.30840 3122 ft 184 kts 188°
2026-04-20 05:51 36.10646 -5.31431 3319 ft 214 kts 212°
2026-04-20 05:51 36.09579 -5.32841 3769 ft 232 kts 232°
2026-04-20 05:51 36.08588 -5.34510 4183 ft 249 kts 230°
2026-04-20 05:51 36.07424 -5.36170 4727 ft 261 kts 226°
2026-04-20 05:52 36.06154 -5.37806 5390 ft 267 kts 225°
2026-04-20 05:52 36.04859 -5.39428 6127 ft 270 kts 225°
2026-04-20 05:52 36.03547 -5.41075 6863 ft 272 kts 226°
2026-04-20 05:52 36.02222 -5.42749 7599 ft 275 kts 227°
2026-04-20 05:53 36.00885 -5.44447 8302 ft 278 kts 227°
2026-04-20 05:53 35.99541 -5.46156 9019 ft 280 kts 227°
2026-04-20 05:53 35.98185 -5.47880 9704 ft 283 kts 228°
2026-04-20 05:53 35.96809 -5.49628 10348 ft 287 kts 228°
2026-04-20 05:54 35.95401 -5.51419 10717 ft 302 kts 227°
2026-04-20 05:54 35.93914 -5.53306 11197 ft 312 kts 227°
2026-04-20 05:54 35.92384 -5.55242 11840 ft 316 kts 227°
2026-04-20 05:54 35.90857 -5.57171 12535 ft 319 kts 227°
2026-04-20 05:55 35.89304 -5.59131 13277 ft 322 kts 227°
2026-04-20 05:55 35.87736 -5.61112 13977 ft 325 kts 227°
2026-04-20 05:55 35.86149 -5.63119 14634 ft 329 kts 227°
2026-04-20 05:55 35.84596 -5.65153 15301 ft 333 kts 229°
2026-04-20 05:56 35.83162 -5.67415 15989 ft 336 kts 236°
2026-04-20 05:56 35.81965 -5.69889 16656 ft 339 kts 242°
2026-04-20 05:56 35.80908 -5.72472 17270 ft 344 kts 244°
2026-04-20 05:56 35.79883 -5.75166 17917 ft 347 kts 244°
2026-04-20 05:57 35.78874 -5.77850 18548 ft 350 kts 244°
2026-04-20 05:57 35.77840 -5.80573 19168 ft 353 kts 244°
2026-04-20 05:57 35.76788 -5.83297 19751 ft 356 kts 244°
2026-04-20 05:57 35.75704 -5.86076 20336 ft 359 kts 244°
2026-04-20 05:58 35.74621 -5.88834 20916 ft 362 kts 244°
2026-04-20 05:58 35.73525 -5.91610 21457 ft 365 kts 243°
2026-04-20 05:58 35.72324 -5.94354 21996 ft 367 kts 239°
2026-04-20 05:58 35.71009 -5.97040 22499 ft 370 kts 238°
2026-04-20 05:59 35.69624 -5.99750 22999 ft 373 kts 237°
2026-04-20 05:59 35.68234 -6.02439 23505 ft 376 kts 237°
2026-04-20 05:59 35.66846 -6.05135 24018 ft 378 kts 238°
2026-04-20 05:59 35.65440 -6.07883 24452 ft 382 kts 238°
2026-04-20 06:00 35.64043 -6.10630 24950 ft 384 kts 238°
2026-04-20 06:00 35.62624 -6.13432 25408 ft 387 kts 238°
2026-04-20 06:00 35.61206 -6.16237 25862 ft 389 kts 238°
2026-04-20 06:00 35.59778 -6.19067 26339 ft 391 kts 238°
2026-04-20 06:01 35.58351 -6.21896 26810 ft 392 kts 238°
2026-04-20 06:01 35.56897 -6.24777 27277 ft 394 kts 238°
2026-04-20 06:01 35.55463 -6.27620 27678 ft 396 kts 238°
2026-04-20 06:01 35.54014 -6.30487 28088 ft 398 kts 238°
2026-04-20 06:02 35.52554 -6.33374 28492 ft 400 kts 238°
2026-04-20 06:02 35.51071 -6.36303 28892 ft 402 kts 238°
2026-04-20 06:02 35.49596 -6.39217 29302 ft 404 kts 238°
2026-04-20 06:02 35.48118 -6.42134 29670 ft 406 kts 238°
2026-04-20 06:03 35.46581 -6.45054 30085 ft 407 kts 235°
2026-04-20 06:03 35.44883 -6.47790 30407 ft 409 kts 229°
2026-04-20 06:03 35.42894 -6.50309 30838 ft 408 kts 222°
2026-04-20 06:03 35.40718 -6.52485 31130 ft 411 kts 216°
2026-04-20 06:04 35.38286 -6.54371 31515 ft 412 kts 209°
2026-04-20 06:04 35.35713 -6.55932 31861 ft 414 kts 205°
2026-04-20 06:04 35.33087 -6.57336 32208 ft 416 kts 204°
2026-04-20 06:04 35.30404 -6.58747 32540 ft 418 kts 204°
2026-04-20 06:05 35.27748 -6.60190 32901 ft 418 kts 205°
2026-04-20 06:05 35.25084 -6.61701 32939 ft 422 kts 206°
2026-04-20 06:05 35.19864 -6.64824 32936 ft 418 kts 207°
2026-04-20 06:06 35.14646 -6.68053 32934 ft 419 kts 207°
2026-04-20 06:06 35.09492 -6.71275 32936 ft 419 kts 207°
2026-04-20 06:07 35.04291 -6.74531 32926 ft 419 kts 207°
2026-04-20 06:07 34.99069 -6.77796 32924 ft 420 kts 207°
2026-04-20 06:08 34.93859 -6.81046 32928 ft 419 kts 207°
2026-04-20 06:08 34.88674 -6.84278 32921 ft 418 kts 207°
2026-04-20 06:09 34.83502 -6.87498 32925 ft 419 kts 207°
2026-04-20 06:09 34.78324 -6.90715 32924 ft 419 kts 207°
2026-04-20 06:10 34.73154 -6.93918 32925 ft 419 kts 207°
2026-04-20 06:10 34.67959 -6.97135 32924 ft 419 kts 207°
2026-04-20 06:11 34.62740 -7.00364 32922 ft 420 kts 207°
2026-04-20 06:11 34.57562 -7.03562 32923 ft 419 kts 207°
2026-04-20 06:12 34.52354 -7.06774 32919 ft 418 kts 207°
2026-04-20 06:12 34.47177 -7.09961 32914 ft 420 kts 207°
2026-04-20 06:13 34.41975 -7.13160 32905 ft 420 kts 207°
2026-04-20 06:13 34.36740 -7.16373 32900 ft 420 kts 207°
2026-04-20 06:14 34.31519 -7.19572 32899 ft 421 kts 207°
2026-04-20 06:14 34.26308 -7.22760 32898 ft 420 kts 207°
2026-04-20 06:15 34.21094 -7.25946 32899 ft 421 kts 207°
2026-04-20 06:15 34.15859 -7.29141 32899 ft 421 kts 207°
2026-04-20 06:16 34.10646 -7.32319 32897 ft 421 kts 207°
2026-04-20 06:16 34.05418 -7.35502 32896 ft 422 kts 207°
2026-04-20 06:17 34.00191 -7.38680 32892 ft 423 kts 208°
2026-04-20 06:17 33.94924 -7.41879 32895 ft 423 kts 207°
2026-04-20 06:18 33.89662 -7.45070 32897 ft 422 kts 207°
2026-04-20 06:18 33.84442 -7.48232 32896 ft 422 kts 208°
2026-04-20 06:19 33.79161 -7.51426 32899 ft 423 kts 208°
2026-04-20 06:19 33.73919 -7.54592 32905 ft 424 kts 208°
2026-04-20 06:20 33.68662 -7.57762 32909 ft 424 kts 208°
2026-04-20 06:20 33.63380 -7.60944 32916 ft 424 kts 208°
2026-04-20 06:21 33.58102 -7.64118 32909 ft 424 kts 208°
2026-04-20 06:21 33.52905 -7.67415 32914 ft 424 kts 212°
2026-04-20 06:22 33.48100 -7.71474 32916 ft 422 kts 219°
2026-04-20 06:22 33.43508 -7.75905 32915 ft 423 kts 220°
2026-04-20 06:23 33.38989 -7.80376 32918 ft 424 kts 220°
2026-04-20 06:23 33.34436 -7.84854 32915 ft 424 kts 220°
2026-04-20 06:24 33.29860 -7.89319 32921 ft 426 kts 220°
2026-04-20 06:24 33.25272 -7.93774 32924 ft 424 kts 220°
2026-04-20 06:25 33.20705 -7.98190 32924 ft 424 kts 220°
2026-04-20 06:25 33.16116 -8.02620 32919 ft 425 kts 220°
2026-04-20 06:26 33.11510 -8.07061 32914 ft 424 kts 220°
2026-04-20 06:26 33.06924 -8.11473 32916 ft 424 kts 220°
2026-04-20 06:27 33.02325 -8.15894 32912 ft 424 kts 220°
2026-04-20 06:27 32.97750 -8.20284 32911 ft 425 kts 220°
2026-04-20 06:28 32.93138 -8.24704 32911 ft 426 kts 220°
2026-04-20 06:28 32.88520 -8.29123 32906 ft 425 kts 220°
2026-04-20 06:29 32.83924 -8.33515 32904 ft 425 kts 220°
2026-04-20 06:29 32.79356 -8.37875 32893 ft 423 kts 220°
2026-04-20 06:30 32.74771 -8.42246 32894 ft 423 kts 220°
2026-04-20 06:30 32.70168 -8.46628 32895 ft 424 kts 220°
2026-04-20 06:31 32.65555 -8.51013 32896 ft 423 kts 221°
2026-04-20 06:31 32.60970 -8.55365 32890 ft 424 kts 220°
2026-04-20 06:32 32.56373 -8.59721 32888 ft 423 kts 220°
2026-04-20 06:32 32.51774 -8.64073 32892 ft 424 kts 220°
2026-04-20 06:33 32.47189 -8.68408 32890 ft 423 kts 220°
2026-04-20 06:33 32.42603 -8.72738 32892 ft 422 kts 220°
2026-04-20 06:34 32.38005 -8.77071 32892 ft 423 kts 220°
2026-04-20 06:35 32.31120 -8.83547 32893 ft 422 kts 220°
2026-04-20 06:35 32.26511 -8.87877 32894 ft 421 kts 220°
2026-04-20 06:36 32.21933 -8.92174 32898 ft 420 kts 220°
2026-04-20 06:36 32.17385 -8.96435 32908 ft 420 kts 220°
2026-04-20 06:37 32.12811 -9.00715 32921 ft 420 kts 220°
2026-04-20 06:37 32.08231 -9.04997 32928 ft 420 kts 220°
2026-04-20 06:38 32.03663 -9.09261 32921 ft 418 kts 220°
2026-04-20 06:38 31.99078 -9.13536 32921 ft 421 kts 220°
2026-04-20 06:39 31.94484 -9.17815 32925 ft 420 kts 220°
2026-04-20 06:39 31.89892 -9.22085 32926 ft 420 kts 220°
2026-04-20 06:40 31.85343 -9.26309 32934 ft 418 kts 220°
2026-04-20 06:40 31.80749 -9.30568 32937 ft 418 kts 220°
2026-04-20 06:41 31.76195 -9.34786 32940 ft 418 kts 220°
2026-04-20 06:41 31.71633 -9.39006 32933 ft 418 kts 220°
2026-04-20 06:42 31.67064 -9.43226 32933 ft 419 kts 220°
2026-04-20 06:42 31.62504 -9.47434 32927 ft 418 kts 220°
2026-04-20 06:43 31.57926 -9.51652 32918 ft 417 kts 220°
2026-04-20 06:43 31.53352 -9.55859 32914 ft 417 kts 221°
2026-04-20 06:44 31.48803 -9.60041 32892 ft 417 kts 221°
2026-04-20 06:44 31.44237 -9.64232 32895 ft 417 kts 221°
2026-04-20 06:45 31.39941 -9.68762 32887 ft 414 kts 230°
2026-04-20 06:45 31.36428 -9.74016 32876 ft 413 kts 236°
2026-04-20 06:46 31.33253 -9.79617 32880 ft 411 kts 239°
2026-04-20 06:46 31.30186 -9.85257 32881 ft 412 kts 239°
2026-04-20 06:47 31.27107 -9.90879 32871 ft 412 kts 238°
2026-04-20 06:47 31.24016 -9.96466 32854 ft 412 kts 238°
2026-04-20 06:48 31.20883 -10.02082 32841 ft 411 kts 238°
2026-04-20 06:48 31.17782 -10.07624 32842 ft 411 kts 238°
2026-04-20 06:49 31.14649 -10.13207 32840 ft 410 kts 238°
2026-04-20 06:49 31.11515 -10.18784 32836 ft 410 kts 238°
2026-04-20 06:50 31.08394 -10.24330 32837 ft 411 kts 238°
2026-04-20 06:50 31.05271 -10.29868 32838 ft 410 kts 238°
2026-04-20 06:51 31.02148 -10.35399 32836 ft 410 kts 238°
2026-04-20 06:51 30.99007 -10.40955 32835 ft 410 kts 238°
2026-04-20 06:52 30.95859 -10.46514 32830 ft 410 kts 238°
2026-04-20 06:52 30.92731 -10.52032 32832 ft 411 kts 238°
2026-04-20 06:53 30.89591 -10.57564 32837 ft 410 kts 238°
2026-04-20 06:53 30.86458 -10.63077 32839 ft 409 kts 238°
2026-04-20 06:54 30.83319 -10.68592 32844 ft 409 kts 238°
2026-04-20 06:54 30.80174 -10.74110 32844 ft 410 kts 238°
2026-04-20 06:55 30.77026 -10.79624 32838 ft 408 kts 238°
2026-04-20 06:55 30.73893 -10.85104 32833 ft 408 kts 238°
2026-04-20 06:56 30.70741 -10.90611 32825 ft 410 kts 238°
2026-04-20 06:56 30.67593 -10.96100 32824 ft 408 kts 238°
2026-04-20 06:57 30.64438 -11.01594 32828 ft 409 kts 238°
2026-04-20 06:57 30.61291 -11.07065 32820 ft 408 kts 238°
2026-04-20 06:58 30.58168 -11.12488 32819 ft 405 kts 238°
2026-04-20 06:58 30.55032 -11.17931 32821 ft 405 kts 238°
2026-04-20 06:59 30.51912 -11.23340 32820 ft 406 kts 238°
2026-04-20 06:59 30.48770 -11.28780 32815 ft 403 kts 238°
2026-04-20 07:00 30.45658 -11.34157 32822 ft 405 kts 238°
2026-04-20 07:00 30.42529 -11.39554 32818 ft 402 kts 238°
2026-04-20 07:01 30.39408 -11.44934 32821 ft 404 kts 238°
2026-04-20 07:01 30.36279 -11.50321 32817 ft 403 kts 238°
2026-04-20 07:02 30.33161 -11.55676 32817 ft 402 kts 238°
2026-04-20 07:02 30.30027 -11.61052 32822 ft 403 kts 238°
2026-04-20 07:03 30.26901 -11.66403 32819 ft 401 kts 238°
2026-04-20 07:03 30.23779 -11.71747 32822 ft 401 kts 238°
2026-04-20 07:04 30.20647 -11.77100 32823 ft 401 kts 238°
2026-04-20 07:04 30.17545 -11.82394 32825 ft 400 kts 237°
2026-04-20 07:05 30.14427 -11.87709 32824 ft 400 kts 237°
2026-04-20 07:05 30.11317 -11.93005 32822 ft 399 kts 238°
2026-04-20 07:06 30.08190 -11.98321 32825 ft 401 kts 237°
2026-04-20 07:06 30.05087 -12.03589 32819 ft 399 kts 238°
2026-04-20 07:07 30.01950 -12.08909 32818 ft 400 kts 237°
2026-04-20 07:07 29.98820 -12.14209 32815 ft 399 kts 238°
2026-04-20 07:08 29.95692 -12.19502 32813 ft 401 kts 237°
2026-04-20 07:08 29.92579 -12.24760 32819 ft 399 kts 237°
2026-04-20 07:09 29.89442 -12.30053 32814 ft 400 kts 238°
2026-04-20 07:09 29.86291 -12.35361 32812 ft 401 kts 237°
2026-04-20 07:10 29.83158 -12.40627 32810 ft 399 kts 237°
2026-04-20 07:10 29.80018 -12.45908 32809 ft 400 kts 237°
2026-04-20 07:11 29.76871 -12.51185 32808 ft 399 kts 238°
2026-04-20 07:11 29.73717 -12.56473 32821 ft 401 kts 238°
2026-04-20 07:12 29.70583 -12.61716 32807 ft 400 kts 238°
2026-04-20 07:12 29.67423 -12.66998 32817 ft 401 kts 237°
2026-04-20 07:13 29.64259 -12.72279 32807 ft 402 kts 237°
2026-04-20 07:13 29.61096 -12.77555 32812 ft 402 kts 237°
2026-04-20 07:14 29.57901 -12.82873 32810 ft 402 kts 237°
2026-04-20 07:14 29.54720 -12.88164 32814 ft 403 kts 237°
2026-04-20 07:15 29.51530 -12.93461 32811 ft 403 kts 237°
2026-04-20 07:15 29.48331 -12.98766 32815 ft 404 kts 237°
2026-04-20 07:16 29.45135 -13.04056 32808 ft 403 kts 237°
2026-04-20 07:16 29.41954 -13.09319 32812 ft 403 kts 237°
2026-04-20 07:17 29.38752 -13.14609 32816 ft 404 kts 237°
2026-04-20 07:17 29.35546 -13.19899 32810 ft 403 kts 237°
2026-04-20 07:18 29.32355 -13.25157 32818 ft 403 kts 237°
2026-04-20 07:18 29.29147 -13.30439 32821 ft 403 kts 237°
2026-04-20 07:19 29.25943 -13.35706 32821 ft 403 kts 237°
2026-04-20 07:19 29.22738 -13.40969 32826 ft 404 kts 237°
2026-04-20 07:20 29.19543 -13.46213 32823 ft 404 kts 238°
2026-04-20 07:20 29.16791 -13.51798 32825 ft 403 kts 248°
2026-04-20 07:21 29.15018 -13.57854 32820 ft 402 kts 255°
2026-04-20 07:21 29.13655 -13.64036 32824 ft 403 kts 257°
2026-04-20 07:22 29.12356 -13.70240 32821 ft 401 kts 256°
2026-04-20 07:22 29.11040 -13.76436 32824 ft 401 kts 256°
2026-04-20 07:23 29.09700 -13.82628 32828 ft 401 kts 256°
2026-04-20 07:23 29.08351 -13.88799 32833 ft 401 kts 256°
2026-04-20 07:24 29.06989 -13.94992 32836 ft 399 kts 256°
2026-04-20 07:24 29.05638 -14.01122 32842 ft 401 kts 256°
2026-04-20 07:25 29.04271 -14.07304 32841 ft 401 kts 256°
2026-04-20 07:25 29.02909 -14.13448 32842 ft 402 kts 256°
2026-04-20 07:26 29.01536 -14.19625 32838 ft 401 kts 256°
2026-04-20 07:26 29.00160 -14.25801 32843 ft 401 kts 256°
2026-04-20 07:27 28.98790 -14.31937 32836 ft 401 kts 256°
2026-04-20 07:27 28.97405 -14.38127 32831 ft 400 kts 256°
2026-04-20 07:28 28.96033 -14.44250 32836 ft 400 kts 256°
2026-04-20 07:28 28.94653 -14.50389 32831 ft 399 kts 256°
2026-04-20 07:29 28.93276 -14.56501 32832 ft 399 kts 256°
2026-04-20 07:29 28.91888 -14.62646 32827 ft 400 kts 256°
2026-04-20 07:30 28.90494 -14.68805 32826 ft 400 kts 256°
2026-04-20 07:30 28.89107 -14.74919 32825 ft 400 kts 256°
2026-04-20 07:31 28.87704 -14.81089 32822 ft 400 kts 255°
2026-04-20 07:31 28.86318 -14.87174 32825 ft 401 kts 256°
2026-04-20 07:32 28.84915 -14.93325 32824 ft 400 kts 256°
2026-04-20 07:32 28.83511 -14.99471 32832 ft 404 kts 255°
2026-04-20 07:33 28.82071 -15.05760 32580 ft 414 kts 255°
2026-04-20 07:33 28.81353 -15.08891 32143 ft 409 kts 255°
2026-04-20 07:33 28.80636 -15.12005 31550 ft 407 kts 255°
2026-04-20 07:33 28.79912 -15.15151 30842 ft 408 kts 255°
2026-04-20 07:34 28.79204 -15.18226 30105 ft 409 kts 255°
2026-04-20 07:34 28.78481 -15.21361 29535 ft 405 kts 255°
2026-04-20 07:34 28.77773 -15.24432 28953 ft 402 kts 255°
2026-04-20 07:35 28.76359 -15.30551 27750 ft 396 kts 255°
2026-04-20 07:35 28.75666 -15.33545 27163 ft 394 kts 255°
2026-04-20 07:35 28.74970 -15.36548 26561 ft 391 kts 255°
2026-04-20 07:35 28.74280 -15.39522 25968 ft 388 kts 255°
2026-04-20 07:36 28.73596 -15.42464 25375 ft 386 kts 255°
2026-04-20 07:36 28.72916 -15.45386 24785 ft 384 kts 255°
2026-04-20 07:36 28.72231 -15.48332 24196 ft 381 kts 255°
2026-04-20 07:36 28.71555 -15.51230 23613 ft 379 kts 255°
2026-04-20 07:37 28.70891 -15.54079 23036 ft 376 kts 254°
2026-04-20 07:37 28.70219 -15.56958 22447 ft 374 kts 254°
2026-04-20 07:37 28.69556 -15.59795 21871 ft 372 kts 254°
2026-04-20 07:37 28.68889 -15.62644 21281 ft 370 kts 254°
2026-04-20 07:38 28.68232 -15.65448 20706 ft 368 kts 253°
2026-04-20 07:38 28.67577 -15.68244 20126 ft 366 kts 253°
2026-04-20 07:38 28.66926 -15.71016 19552 ft 364 kts 253°
2026-04-20 07:38 28.66276 -15.73786 18979 ft 362 kts 253°
2026-04-20 07:39 28.65631 -15.76531 18401 ft 359 kts 253°
2026-04-20 07:39 28.64994 -15.79241 17839 ft 357 kts 253°
2026-04-20 07:39 28.64349 -15.81977 17266 ft 355 kts 252°
2026-04-20 07:39 28.63717 -15.84662 16706 ft 353 kts 252°
2026-04-20 07:40 28.63085 -15.87342 16136 ft 351 kts 252°
2026-04-20 07:40 28.62455 -15.90006 15571 ft 349 kts 252°
2026-04-20 07:40 28.61828 -15.92660 15007 ft 347 kts 251°
2026-04-20 07:40 28.61208 -15.95276 14454 ft 345 kts 251°
2026-04-20 07:41 28.60588 -15.97896 13894 ft 343 kts 251°
2026-04-20 07:41 28.59968 -16.00508 13334 ft 341 kts 251°
2026-04-20 07:41 28.59354 -16.03091 12782 ft 339 kts 251°
2026-04-20 07:41 28.58745 -16.05654 12238 ft 337 kts 250°
2026-04-20 07:42 28.58135 -16.08220 11682 ft 335 kts 250°
2026-04-20 07:42 28.57524 -16.10785 11133 ft 333 kts 250°
2026-04-20 07:42 28.56922 -16.13311 10644 ft 329 kts 250°
2026-04-20 07:42 28.56333 -16.15789 10358 ft 319 kts 250°
2026-04-20 07:43 28.55780 -16.18139 10211 ft 295 kts 250°
2026-04-20 07:43 28.55273 -16.20298 10120 ft 272 kts 250°
2026-04-20 07:43 28.54702 -16.22279 9923 ft 264 kts 238°
2026-04-20 07:43 28.53571 -16.23953 9893 ft 274 kts 217°
2026-04-20 07:44 28.51892 -16.25072 9905 ft 288 kts 200°
2026-04-20 07:44 28.49945 -16.25585 9917 ft 286 kts 184°
2026-04-20 07:44 28.48014 -16.25201 9892 ft 274 kts 160°
2026-04-20 07:44 28.46451 -16.24072 9889 ft 265 kts 144°
2026-04-20 07:45 28.45219 -16.22553 9820 ft 259 kts 130°
2026-04-20 07:45 28.44513 -16.20661 9487 ft 271 kts 106°
2026-04-20 07:45 28.44513 -16.18467 9138 ft 291 kts 85°
2026-04-20 07:45 28.45117 -16.16246 8819 ft 296 kts 72°
2026-04-20 07:46 28.45959 -16.14126 8520 ft 288 kts 69°
2026-04-20 07:46 28.46784 -16.12129 8338 ft 273 kts 70°
2026-04-20 07:46 28.47391 -16.10162 8200 ft 253 kts 88°
2026-04-20 07:46 28.47363 -16.08263 8079 ft 231 kts 108°
2026-04-20 07:47 28.46924 -16.06540 7766 ft 225 kts 120°
2026-04-20 07:47 28.46048 -16.05193 7444 ft 206 kts 151°
2026-04-20 07:47 28.44812 -16.04574 7299 ft 182 kts 171°
2026-04-20 07:47 28.43618 -16.04381 7138 ft 168 kts 182°
2026-04-20 07:48 28.42465 -16.04552 6969 ft 168 kts 201°
2026-04-20 07:48 28.41447 -16.05182 6802 ft 170 kts 216°
2026-04-20 07:48 28.40605 -16.06120 6604 ft 170 kts 231°
2026-04-20 07:48 28.40081 -16.07327 6421 ft 173 kts 249°
2026-04-20 07:49 28.39914 -16.08708 6228 ft 179 kts 265°
2026-04-20 07:49 28.40141 -16.10105 6082 ft 183 kts 282°
2026-04-20 07:49 28.40608 -16.11464 5849 ft 187 kts 285°
2026-04-20 07:49 28.41081 -16.12791 5588 ft 176 kts 285°
2026-04-20 07:50 28.41521 -16.14059 5376 ft 171 kts 285°
2026-04-20 07:50 28.41956 -16.15319 5266 ft 173 kts 285°
2026-04-20 07:50 28.42392 -16.16604 4980 ft 172 kts 285°
2026-04-20 07:50 28.42810 -16.17845 4752 ft 168 kts 286°
2026-04-20 07:51 28.43226 -16.19090 4521 ft 170 kts 286°
2026-04-20 07:51 28.43639 -16.20322 4330 ft 168 kts 287°
2026-04-20 07:51 28.44043 -16.21527 4038 ft 157 kts 288°
2026-04-20 07:51 28.44417 -16.22639 3862 ft 150 kts 288°
2026-04-20 07:52 28.44787 -16.23751 3658 ft 150 kts 288°
2026-04-20 07:52 28.45162 -16.24874 3455 ft 153 kts 288°
2026-04-20 07:52 28.45537 -16.25993 3252 ft 152 kts 289°
2026-04-20 07:52 28.45913 -16.27116 3051 ft 150 kts 289°
2026-04-20 07:53 28.46276 -16.28205 2854 ft 147 kts 289°
2026-04-20 07:53 28.46636 -16.29282 2660 ft 146 kts 290°
2026-04-20 07:53 28.46993 -16.30349 2470 ft 143 kts 290°
2026-04-20 07:53 28.47346 -16.31407 2277 ft 141 kts 290°
2026-04-20 07:54 28.47677 -16.32444 2076 ft 139 kts 290°
2026-04-20 07:54 28.48012 -16.33408 2024 ft 107 kts 291°
2026-04-20 07:54 28.48200 -16.33964 2029 ft 41 kts 288°
2026-04-20 07:54 28.48278 -16.34123 2032 ft 15 kts 313°
2026-04-20 07:55 28.48360 -16.34205 2034 ft 14 kts 321°
2026-04-20 07:55 28.48421 -16.34288 2038 ft 13 kts 297°
2026-04-20 07:55 28.48455 -16.34383 2044 ft 14 kts 290°
2026-04-20 07:55 28.48483 -16.34473 2049 ft 9 kts 289°
2026-04-20 07:56 28.48515 -16.34557 2054 ft 15 kts 303°
2026-04-20 07:56 28.48574 -16.34602 2054 ft 8 kts 322°
2026-04-20 07:56 28.48616 -16.34633 2054 ft 6 kts 345°
2026-04-20 07:56 28.48655 -16.34628 2052 ft 1 kts 17°
2026-04-20 07:57 28.48663 -16.34625 2052 ft 0 kts 18°